When you browse on this site, cookies collect data to enhance your experience and personalize the content and advertising you see.
Visit our Privacy Policy to learn more. By continuing to use the site, you agree to this use of cookies and data.
  • în România
  • Lista ţărilor
  • Pe 7 zile
  • Temperatura apei
  • Hartă satelitară
  • Meteo pe hartă
  • Widget-uri
  • user-avatar
    Intrare

    Meteo pe oră la Achikulak

    Astăzi, 24 Iulie, Miercuri

    Timp Temperatura Precipitaţii Vânt Presiune Umiditate
    00:00 +24°C° 0 mm 2 m/s 752 mmHg 68%
    01:00 +24°C° 0 mm 2 m/s 752 mmHg 70%
    02:00 +24°C° 0 mm 2 m/s 751 mmHg 72%
    03:00 +24°C° 0 mm 1 m/s 751 mmHg 74%
    04:00 +24°C° 0 mm 1 m/s 751 mmHg 73%
    05:00 +24°C° 0 mm 2 m/s 751 mmHg 73%
    06:00 +24°C° 0 mm 2 m/s 751 mmHg 73%
    07:00 +25°C° 0 mm 2 m/s 751 mmHg 66%
    08:00 +27°C° 0 mm 3 m/s 751 mmHg 59%
    09:00 +28°C° 0 mm 3 m/s 751 mmHg 52%
    10:00 +29°C° 0 mm 3 m/s 750 mmHg 50%
    11:00 +29°C° 0 mm 3 m/s 750 mmHg 47%
    12:00 +30°C° 0 mm 4 m/s 750 mmHg 45%
    13:00 +32°C° 0.1 mm 4 m/s 750 mmHg 44%
    14:00 +32°C° 0.1 mm 4 m/s 750 mmHg 44%
    15:00 +32°C° 0.1 mm 4 m/s 749 mmHg 44%
    16:00 +32°C° 0.1 mm 4 m/s 750 mmHg 44%
    17:00 +31°C° 0.1 mm 3 m/s 750 mmHg 45%
    18:00 +31°C° 0.1 mm 3 m/s 750 mmHg 46%
    19:00 +29°C° 0.1 mm 3 m/s 750 mmHg 49%
    20:00 +28°C° 0.1 mm 2 m/s 750 mmHg 52%
    21:00 +27°C° 0.1 mm 2 m/s 750 mmHg 55%
    22:00 +26°C° 0.1 mm 2 m/s 750 mmHg 56%
    23:00 +26°C° 0.1 mm 2 m/s 750 mmHg 58%

    Mâine, 25 Iulie, Joi

    Timp Temperatura Precipitaţii Vânt Presiune Umiditate
    00:00 +25°C° 0.1 mm 2 m/s 750 mmHg 60%
    01:00 +25°C° 0.2 mm 1 m/s 750 mmHg 63%
    02:00 +25°C° 0.2 mm 1 m/s 750 mmHg 67%
    03:00 +22°C° 0.2 mm 0 m/s 749 mmHg 70%
    04:00 +25°C° 0.2 mm 1 m/s 749 mmHg 68%
    05:00 +25°C° 0.2 mm 2 m/s 750 mmHg 66%
    06:00 +26°C° 0.2 mm 3 m/s 750 mmHg 64%
    07:00 +27°C° 0.5 mm 3 m/s 750 mmHg 61%
    08:00 +27°C° 0.5 mm 3 m/s 750 mmHg 58%
    09:00 +28°C° 0.5 mm 3 m/s 750 mmHg 54%
    10:00 +30°C° 0.2 mm 3 m/s 750 mmHg 50%
    11:00 +31°C° 0.2 mm 3 m/s 750 mmHg 46%
    12:00 +33°C° 0.2 mm 3 m/s 750 mmHg 42%
    13:00 +30°C° 0.3 mm 5 m/s 749 mmHg 50%
    14:00 +29°C° 0.3 mm 7 m/s 749 mmHg 59%
    15:00 +27°C° 0.3 mm 9 m/s 749 mmHg 68%
    16:00 +27°C° 0.1 mm 7 m/s 750 mmHg 67%
    17:00 +27°C° 0.1 mm 6 m/s 750 mmHg 67%
    18:00 +27°C° 0.1 mm 5 m/s 750 mmHg 66%
    19:00 +26°C° 0.1 mm 5 m/s 750 mmHg 69%
    20:00 +25°C° 0.1 mm 4 m/s 750 mmHg 72%
    21:00 +23°C° 0.1 mm 4 m/s 751 mmHg 75%
    22:00 +23°C° 0.1 mm 5 m/s 751 mmHg 75%
    23:00 +23°C° 0.1 mm 5 m/s 751 mmHg 76%

    Poimâine, 26 Iulie, Vineri

    Timp Temperatura Precipitaţii Vânt Presiune Umiditate
    00:00 +23°C° 0.1 mm 6 m/s 751 mmHg 77%
    01:00 +22°C° 0.4 mm 5 m/s 751 mmHg 77%
    02:00 +22°C° 0.4 mm 4 m/s 751 mmHg 78%
    03:00 +22°C° 0.4 mm 4 m/s 751 mmHg 79%
    04:00 +22°C° 0 mm 4 m/s 752 mmHg 78%
    05:00 +21°C° 0 mm 4 m/s 752 mmHg 76%
    06:00 +21°C° 0 mm 5 m/s 752 mmHg 75%
    07:00 +23°C° 0 mm 5 m/s 752 mmHg 67%
    08:00 +26°C° 0 mm 6 m/s 752 mmHg 60%
    09:00 +27°C° 0 mm 6 m/s 752 mmHg 53%
    10:00 +29°C° 0 mm 6 m/s 751 mmHg 48%
    11:00 +30°C° 0 mm 6 m/s 751 mmHg 43%
    12:00 +32°C° 0 mm 6 m/s 751 mmHg 37%
    13:00 +33°C° 0 mm 6 m/s 751 mmHg 36%
    14:00 +33°C° 0 mm 6 m/s 750 mmHg 34%
    15:00 +34°C° 0 mm 5 m/s 750 mmHg 33%
    16:00 +33°C° 0 mm 5 m/s 750 mmHg 34%
    17:00 +33°C° 0 mm 5 m/s 750 mmHg 36%
    18:00 +32°C° 0 mm 5 m/s 750 mmHg 37%
    19:00 +30°C° 0 mm 4 m/s 751 mmHg 39%
    20:00 +29°C° 0 mm 4 m/s 751 mmHg 42%
    21:00 +28°C° 0 mm 4 m/s 751 mmHg 44%
    22:00 +27°C° 0 mm 4 m/s 751 mmHg 47%
    23:00 +27°C° 0 mm 4 m/s 751 mmHg 51%

    27 Iulie, Sâmbătă

    Timp Temperatura Precipitaţii Vânt Presiune Umiditate
    00:00 +26°C° 0 mm 5 m/s 751 mmHg 54%
    01:00 +26°C° 0 mm 4 m/s 750 mmHg 55%
    02:00 +25°C° 0 mm 4 m/s 750 mmHg 57%
    03:00 +25°C° 0 mm 3 m/s 750 mmHg 58%
    04:00 +25°C° 0 mm 3 m/s 750 mmHg 59%
    05:00 +25°C° 0 mm 3 m/s 750 mmHg 60%
    06:00 +24°C° 0 mm 3 m/s 750 mmHg 61%
    07:00 +25°C° 0 mm 3 m/s 750 mmHg 59%
    08:00 +26°C° 0 mm 3 m/s 750 mmHg 56%
    09:00 +26°C° 0 mm 3 m/s 750 mmHg 54%
    10:00 +28°C° 0 mm 2 m/s 750 mmHg 49%
    11:00 +29°C° 0 mm 2 m/s 750 mmHg 44%
    12:00 +31°C° 0 mm 2 m/s 750 mmHg 39%
    13:00 +31°C° 0 mm 2 m/s 749 mmHg 37%
    14:00 +32°C° 0 mm 2 m/s 749 mmHg 35%
    15:00 +32°C° 0 mm 2 m/s 749 mmHg 34%
    16:00 +32°C° 0 mm 2 m/s 749 mmHg 35%
    17:00 +32°C° 0 mm 2 m/s 749 mmHg 36%
    18:00 +31°C° 0 mm 3 m/s 748 mmHg 36%
    19:00 +30°C° 0 mm 3 m/s 748 mmHg 40%
    20:00 +28°C° 0 mm 2 m/s 748 mmHg 44%
    21:00 +27°C° 0 mm 2 m/s 748 mmHg 48%
    22:00 +27°C° 0 mm 2 m/s 748 mmHg 48%
    23:00 +27°C° 0 mm 2 m/s 748 mmHg 49%

    28 Iulie, Duminică

    Timp Temperatura Precipitaţii Vânt Presiune Umiditate
    00:00 +26°C° 0 mm 2 m/s 748 mmHg 50%
    01:00 +26°C° 0 mm 2 m/s 748 mmHg 53%
    02:00 +25°C° 0 mm 2 m/s 748 mmHg 56%
    03:00 +24°C° 0 mm 2 m/s 748 mmHg 59%
    04:00 +24°C° 0 mm 2 m/s 748 mmHg 60%
    05:00 +24°C° 0 mm 2 m/s 748 mmHg 61%
    06:00 +25°C° 0 mm 3 m/s 748 mmHg 62%
    07:00 +26°C° 0 mm 3 m/s 748 mmHg 57%
    08:00 +27°C° 0 mm 4 m/s 748 mmHg 51%
    09:00 +29°C° 0 mm 5 m/s 748 mmHg 45%
    10:00 +30°C° 0 mm 5 m/s 748 mmHg 42%
    11:00 +32°C° 0 mm 5 m/s 748 mmHg 39%
    12:00 +33°C° 0 mm 5 m/s 747 mmHg 36%
    13:00 +33°C° 0 mm 5 m/s 747 mmHg 35%
    14:00 +34°C° 0 mm 5 m/s 747 mmHg 35%
    15:00 +34°C° 0 mm 5 m/s 747 mmHg 34%
    16:00 +33°C° 0 mm 4 m/s 747 mmHg 36%
    17:00 +33°C° 0 mm 4 m/s 747 mmHg 37%
    18:00 +31°C° 0 mm 3 m/s 747 mmHg 39%
    19:00 +30°C° 0 mm 3 m/s 747 mmHg 44%
    20:00 +28°C° 0 mm 3 m/s 747 mmHg 49%
    21:00 +27°C° 0 mm 3 m/s 747 mmHg 54%
    22:00 +26°C° 0 mm 3 m/s 747 mmHg 58%
    23:00 +26°C° 0 mm 4 m/s 747 mmHg 61%

    29 Iulie, Luni

    Timp Temperatura Precipitaţii Vânt Presiune Umiditate
    00:00 +25°C° 0 mm 4 m/s 747 mmHg 65%
    01:00 +25°C° 0 mm 4 m/s 747 mmHg 64%
    02:00 +25°C° 0 mm 4 m/s 747 mmHg 64%
    03:00 +25°C° 0 mm 4 m/s 748 mmHg 63%
    04:00 +23°C° 0 mm 4 m/s 748 mmHg 65%
    05:00 +23°C° 0 mm 5 m/s 748 mmHg 66%
    06:00 +22°C° 0 mm 5 m/s 748 mmHg 67%
    07:00 +25°C° 0 mm 5 m/s 748 mmHg 61%
    08:00 +26°C° 0 mm 5 m/s 748 mmHg 56%
    09:00 +27°C° 0 mm 6 m/s 748 mmHg 50%
    10:00 +28°C° 0 mm 5 m/s 748 mmHg 46%
    11:00 +29°C° 0 mm 5 m/s 748 mmHg 43%
    12:00 +30°C° 0 mm 5 m/s 748 mmHg 40%
    13:00 +30°C° 0 mm 5 m/s 748 mmHg 39%
    14:00 +32°C° 0 mm 4 m/s 748 mmHg 39%
    15:00 +32°C° 0 mm 4 m/s 748 mmHg 38%
    16:00 +31°C° 0 mm 3 m/s 748 mmHg 38%
    17:00 +31°C° 0 mm 3 m/s 748 mmHg 38%
    18:00 +31°C° 0 mm 3 m/s 748 mmHg 38%
    19:00 +30°C° 0 mm 3 m/s 748 mmHg 42%
    20:00 +29°C° 0 mm 2 m/s 749 mmHg 45%
    21:00 +28°C° 0 mm 2 m/s 749 mmHg 48%
    22:00 +27°C° 0 mm 2 m/s 749 mmHg 50%
    23:00 +26°C° 0 mm 2 m/s 749 mmHg 53%
    Arată mai mult